Weather History for New Bedford, MA

Change the Weather History Date:

Wednesday, November 21, 2012

  Actual Average Record
Temperature  
Mean Temperature 44 °F -  
Max Temperature 52 °F 50 °F 70 °F (1975)
Min Temperature 37 °F 35 °F 11 °F (1987)
Degree Days  
Heating Degree Days 20    
Moisture  
Dew Point 38 °F    
Average Humidity 80    
Maximum Humidity 100    
Minimum Humidity 59    
Precipitation  
Precipitation 0.00 in - - ()
Sea Level Pressure  
Sea Level Pressure 30.19 in    
Wind  
Wind Speed 5 mph (North)    
Max Wind Speed 12 mph    
Max Gust Speed -    
Visibility 9 miles    
Events Rain    
Averages and records for this station are not official NWS values.
T = Trace of Precipitation, MM = Missing Value Source: NWS Daily Summary

Daily Weather History Graph

Daily Weather History Graph

Search for Another Location

Airport:

Trip Planner

Search our weather history database for the weather conditions in past years. The results will help you decide how hot, cold, wet, or windy it might be!

Date:

Astronomy

Nov. 21, 2012 Rise Set
Actual Time 6:40 AM EST 4:18 PM EST
Civil Twilight 6:10 AM EST 4:48 PM EST
Nautical Twilight 5:36 AM EST 5:22 PM EST
Astronomical Twilight 5:03 AM EST 5:56 PM EST
Moon 12:38 PM EST (11/21) No Moon Set
Length of Visible Light 10h 38m
Length of Day
9h 38m
First Quarter, 61% of the Moon is Illuminated
Nov 21
First Quarter
Nov 28
Full
Dec 6
Last Quarter
Dec 13
New
Dec 20
First Quarter

Hourly Weather History & Observations

Time (EST) Temp. Windchill Dew Point Humidity Pressure Visibility Wind Dir Wind Speed Gust Speed Precip Events Conditions
12:53 AM 37.0 °F 34.5 °F 34.0 °F 89% 30.14 in 10.0 mi North 3.5 mph - N/A   Clear
1:53 AM 37.9 °F 33.5 °F 34.0 °F 86% 30.14 in 10.0 mi NNW 5.8 mph - N/A   Clear
2:53 AM 37.0 °F 33.3 °F 34.0 °F 89% 30.15 in 10.0 mi NNW 4.6 mph - N/A   Clear
3:53 AM 37.0 °F 34.5 °F 34.0 °F 89% 30.15 in 10.0 mi NNW 3.5 mph - N/A   Clear
4:53 AM 37.9 °F 34.4 °F 34.0 °F 86% 30.15 in 10.0 mi North 4.6 mph - N/A   Clear
5:53 AM 37.0 °F 33.3 °F 33.1 °F 86% 30.16 in 10.0 mi North 4.6 mph - N/A   Clear
6:53 AM 37.0 °F 34.5 °F 33.1 °F 86% 30.18 in 10.0 mi NNW 3.5 mph - N/A   Clear
7:53 AM 39.0 °F 34.8 °F 33.1 °F 79% 30.19 in 10.0 mi NNW 5.8 mph - N/A   Clear
8:53 AM 44.1 °F 40.1 °F 35.1 °F 71% 30.19 in 10.0 mi North 6.9 mph - N/A   Clear
9:53 AM 46.9 °F - 37.0 °F 68% 30.19 in 10.0 mi Variable 4.6 mph - N/A   Clear
10:53 AM 50.0 °F - 39.0 °F 66% 30.18 in 10.0 mi North 10.4 mph - N/A   Scattered Clouds
11:53 AM 51.1 °F - 39.9 °F 66% 30.18 in 10.0 mi North 6.9 mph - N/A   Mostly Cloudy
12:53 PM 50.0 °F - 41.0 °F 71% 30.18 in 10.0 mi NNE 8.1 mph - N/A   Overcast
1:53 PM 52.0 °F - 42.1 °F 69% 30.17 in 10.0 mi North 6.9 mph - N/A   Overcast
2:00 PM 51.8 °F - 41.0 °F 67% 30.16 in 10.0 mi North 8.1 mph - N/A   Mostly Cloudy
2:53 PM 52.0 °F - 37.9 °F 59% 30.17 in 10.0 mi NNE 11.5 mph - N/A   Scattered Clouds
3:53 PM 50.0 °F - 37.9 °F 63% 30.18 in 10.0 mi NNE 6.9 mph - N/A   Clear
4:53 PM 48.9 °F - 41.0 °F 74% 30.19 in 10.0 mi North 3.5 mph - N/A   Overcast
5:53 PM 48.0 °F - 41.0 °F 77% 30.21 in 10.0 mi North 4.6 mph - N/A   Overcast
6:53 PM 45.0 °F - 41.0 °F 86% 30.22 in 10.0 mi Calm Calm - N/A   Partly Cloudy
7:53 PM 45.0 °F 43.5 °F 42.1 °F 90% 30.23 in 7.0 mi NNW 3.5 mph - 0.00 in Rain Light Rain
8:53 PM 46.0 °F 43.9 °F 43.0 °F 89% 30.22 in 7.0 mi NNW 4.6 mph - 0.00 in   Overcast
9:53 PM 44.1 °F 42.5 °F 42.1 °F 93% 30.22 in 5.0 mi NNW 3.5 mph - N/A   Partly Cloudy
10:53 PM 44.1 °F 42.5 °F 42.1 °F 93% 30.22 in 4.0 mi NNW 3.5 mph - N/A   Mostly Cloudy
11:53 PM 42.1 °F - 41.0 °F 96% 30.22 in 1.8 mi Calm Calm - N/A   Partly Cloudy
11:56 PM 39.2 °F - 39.2 °F 100% 30.22 in 0.8 mi Calm Calm - N/A   Mist